| time (UTC) | temp C | wind direction | speed KPH | gust KPH | rain 1hr cm | rain 24hr cm | rain mn cm | humidity % | barometer mb |
| 20260507213557 | 13 | 119 | 4.8 | 14.5 | 0.00 | 0.15 | 0.05 | 62 | 1007.9 |
| 20260507213139 | 13 | 132 | 4.8 | 14.5 | 0.00 | 0.15 | 0.05 | 64 | 1007.9 |
| 20260507212601 | 14 | 197 | 6.4 | 14.5 | 0.00 | 0.15 | 0.05 | 63 | 1008.0 |
| 20260507212056 | 14 | 207 | 4.8 | 14.5 | 0.00 | 0.15 | 0.05 | 64 | 1007.9 |
| 20260507211559 | 14 | 242 | 4.8 | 14.5 | 0.00 | 0.15 | 0.05 | 64 | 1007.7 |
| 20260507211056 | 15 | 154 | 3.2 | 14.5 | 0.00 | 0.15 | 0.05 | 64 | 1007.9 |
| 20260507210558 | 14 | 90 | 6.4 | 14.5 | 0.00 | 0.15 | 0.05 | 60 | 1007.9 |
| 20260507210103 | 14 | 141 | 4.8 | 16.1 | 0.00 | 0.15 | 0.05 | 63 | 1008.0 |
| 20260507205556 | 14 | 117 | 4.8 | 17.7 | 0.00 | 0.15 | 0.05 | 63 | 1007.9 |
| 20260507205100 | 15 | 205 | 4.8 | 17.7 | 0.00 | 0.15 | 0.05 | 65 | 1008.0 |
| 20260507204558 | 15 | 248 | 3.2 | 12.9 | 0.00 | 0.15 | 0.05 | 61 | 1007.9 |
| 20260507204102 | 15 | 77 | 4.8 | 12.9 | 0.00 | 0.15 | 0.05 | 61 | 1007.9 |
| 20260507203600 | 15 | 184 | 4.8 | 16.1 | 0.00 | 0.15 | 0.05 | 60 | 1007.9 |
| 20260507203101 | 15 | 159 | 4.8 | 16.1 | 0.00 | 0.15 | 0.05 | 61 | 1007.9 |
| 20260507202601 | 15 | 275 | 4.8 | 14.5 | 0.00 | 0.15 | 0.05 | 61 | 1008.0 |
| 20260507202102 | 15 | 199 | 3.2 | 14.5 | 0.00 | 0.15 | 0.05 | 66 | 1008.1 |
| 20260507201620 | 15 | 126 | 1.6 | 16.1 | 0.00 | 0.15 | 0.05 | 61 | 1008.0 |
| 20260507201057 | 14 | 142 | 6.4 | 16.1 | 0.00 | 0.15 | 0.05 | 60 | 1008.0 |
| 20260507200600 | 14 | 196 | 6.4 | 14.5 | 0.00 | 0.15 | 0.05 | 65 | 1008.0 |
| 20260507200109 | 15 | 144 | 4.8 | 14.5 | 0.00 | 0.15 | 0.05 | 61 | 1008.1 |
| 20260507195558 | 15 | 216 | 4.8 | 14.5 | 0.00 | 0.15 | 0.05 | 65 | 1008.1 |
| 20260507195059 | 14 | 123 | 3.2 | 11.3 | 0.00 | 0.15 | 0.05 | 66 | 1008.2 |
| 20260507194558 | 14 | 109 | 1.6 | 12.9 | 0.00 | 0.15 | 0.05 | 63 | 1008.2 |
| 20260507194059 | 14 | 163 | 3.2 | 16.1 | 0.00 | 0.15 | 0.05 | 65 | 1008.3 |
| 20260507193604 | 13 | 90 | 4.8 | 16.1 | 0.00 | 0.15 | 0.05 | 67 | 1008.3 |
| 20260507193101 | 13 | 122 | 6.4 | 14.5 | 0.00 | 0.15 | 0.05 | 64 | 1008.5 |
| 20260507192603 | 14 | 111 | 3.2 | 6.4 | 0.00 | 0.15 | 0.05 | 58 | 1008.3 |
| 20260507192059 | 14 | 90 | 1.6 | 4.8 | 0.00 | 0.15 | 0.05 | 57 | 1008.4 |
| 20260507191600 | 14 | 0 | 0.0 | 6.4 | 0.00 | 0.15 | 0.05 | 58 | 1008.5 |
| 20260507191100 | 15 | 46 | 1.6 | 9.7 | 0.00 | 0.15 | 0.05 | 52 | 1008.6 |
| 20260507190559 | 15 | 355 | 1.6 | 9.7 | 0.00 | 0.15 | 0.05 | 51 | 1008.6 |
| 20260507190058 | 15 | 103 | 3.2 | 9.7 | 0.00 | 0.15 | 0.05 | 51 | 1008.8 |
| 20260507185559 | 16 | 17 | 4.8 | 9.7 | 0.00 | 0.15 | 0.05 | 48 | 1008.9 |
| 20260507185100 | 17 | 73 | 3.2 | 11.3 | 0.00 | 0.15 | 0.05 | 45 | 1008.9 |
| 20260507184559 | 17 | 360 | 3.2 | 11.3 | 0.00 | 0.15 | 0.05 | 48 | 1008.9 |
| 20260507184059 | 17 | 301 | 4.8 | 12.9 | 0.00 | 0.15 | 0.05 | 51 | 1008.9 |
| 20260507183558 | 16 | 254 | 4.8 | 12.9 | 0.00 | 0.15 | 0.05 | 52 | 1008.9 |
| 20260507183100 | 17 | 282 | 3.2 | 12.9 | 0.00 | 0.15 | 0.05 | 52 | 1009.0 |
| 20260507182559 | 16 | 348 | 1.6 | 9.7 | 0.00 | 0.15 | 0.05 | 51 | 1009.0 |
| 20260507182100 | 16 | 351 | 3.2 | 9.7 | 0.00 | 0.15 | 0.05 | 53 | 1009.1 |
| 20260507181606 | 16 | 87 | 1.6 | 11.3 | 0.00 | 0.15 | 0.05 | 54 | 1009.1 |
| 20260507181100 | 16 | 311 | 3.2 | 11.3 | 0.00 | 0.15 | 0.05 | 48 | 1009.2 |
| 20260507180600 | 16 | 141 | 3.2 | 11.3 | 0.00 | 0.15 | 0.05 | 52 | 1009.2 |
| 20260507180059 | 16 | 329 | 3.2 | 11.3 | 0.00 | 0.15 | 0.05 | 51 | 1009.3 |
| 20260507175600 | 15 | 283 | 4.8 | 11.3 | 0.00 | 0.15 | 0.05 | 55 | 1009.4 |
| 20260507175101 | 15 | 0 | 3.2 | 9.7 | 0.00 | 0.15 | 0.05 | 48 | 1009.5 |
| 20260507174603 | 15 | 13 | 3.2 | 12.9 | 0.00 | 0.15 | 0.05 | 50 | 1009.5 |
| 20260507174059 | 16 | 26 | 4.8 | 12.9 | 0.00 | 0.15 | 0.05 | 51 | 1009.5 |
| 20260507173559 | 15 | 56 | 3.2 | 9.7 | 0.00 | 0.15 | 0.05 | 55 | 1009.5 |
| 20260507173101 | 15 | 313 | 3.2 | 12.9 | 0.00 | 0.15 | 0.05 | 54 | 1009.5 |
| 20260507172603 | 15 | 346 | 3.2 | 12.9 | 0.00 | 0.15 | 0.05 | 54 | 1009.7 |
| 20260507172058 | 14 | 66 | 3.2 | 12.9 | 0.00 | 0.15 | 0.05 | 62 | 1009.7 |
| 20260507171605 | 14 | 272 | 3.2 | 8.0 | 0.00 | 0.15 | 0.05 | 53 | 1009.8 |
| 20260507171059 | 14 | 71 | 3.2 | 12.9 | 0.00 | 0.15 | 0.05 | 55 | 1010.0 |
| 20260507170602 | 13 | 196 | 3.2 | 14.5 | 0.00 | 0.15 | 0.05 | 59 | 1010.1 |
| 20260507170059 | 13 | 0 | 8.0 | 14.5 | 0.00 | 0.15 | 0.05 | 54 | 1010.3 |
| 20260507165559 | 14 | 96 | 3.2 | 9.7 | 0.00 | 0.15 | 0.05 | 59 | 1010.3 |
| 20260507165101 | 14 | 134 | 1.6 | 11.3 | 0.00 | 0.15 | 0.05 | 53 | 1010.3 |
| 20260507164603 | 13 | 348 | 0.0 | 11.3 | 0.00 | 0.15 | 0.05 | 56 | 1010.4 |
| 20260507164100 | 13 | 92 | 3.2 | 12.9 | 0.00 | 0.15 | 0.05 | 65 | 1010.5 |
| 20260507163559 | 13 | 28 | 3.2 | 12.9 | 0.00 | 0.15 | 0.05 | 58 | 1010.5 |
| 20260507163059 | 12 | 107 | 4.8 | 12.9 | 0.00 | 0.15 | 0.05 | 61 | 1010.7 |
| 20260507162601 | 12 | 96 | 0.0 | 6.4 | 0.00 | 0.15 | 0.05 | 58 | 1010.8 |
| 20260507162104 | 12 | 317 | 1.6 | 8.0 | 0.00 | 0.15 | 0.05 | 61 | 1010.8 |
| 20260507161611 | 12 | 286 | 3.2 | 8.0 | 0.00 | 0.15 | 0.05 | 57 | 1010.8 |
| 20260507161101 | 12 | 76 | 1.6 | 8.0 | 0.00 | 0.15 | 0.05 | 60 | 1010.9 |
| 20260507160601 | 12 | 0 | 3.2 | 11.3 | 0.00 | 0.15 | 0.05 | 56 | 1011.1 |
| 20260507160116 | 12 | 347 | 1.6 | 11.3 | 0.00 | 0.15 | 0.05 | 64 | 1010.9 |
| 20260507155604 | 11 | 133 | 1.6 | 6.4 | 0.00 | 0.15 | 0.05 | 60 | 1011.1 |
| 20260507155100 | 11 | 32 | 1.6 | 6.4 | 0.00 | 0.15 | 0.05 | 62 | 1011.0 |
| 20260507154601 | 11 | 25 | 3.2 | 8.0 | 0.00 | 0.15 | 0.05 | 65 | 1011.2 |
| 20260507154101 | 11 | 24 | 3.2 | 8.0 | 0.00 | 0.15 | 0.05 | 62 | 1011.0 |
| 20260507153600 | 11 | 338 | 3.2 | 8.0 | 0.00 | 0.15 | 0.05 | 62 | 1011.2 |
| 20260507153114 | 11 | 13 | 3.2 | 8.0 | 0.00 | 0.15 | 0.05 | 64 | 1011.2 |
| 20260507152602 | 11 | 326 | 3.2 | 8.0 | 0.00 | 0.15 | 0.05 | 62 | 1011.3 |
| 20260507152059 | 11 | 49 | 3.2 | 6.4 | 0.00 | 0.15 | 0.05 | 64 | 1011.3 |
| 20260507151602 | 11 | 14 | 3.2 | 6.4 | 0.00 | 0.15 | 0.05 | 66 | 1011.4 |
| 20260507151101 | 11 | 327 | 1.6 | 4.8 | 0.00 | 0.15 | 0.05 | 62 | 1011.5 |
| 20260507150602 | 11 | 355 | 1.6 | 8.0 | 0.00 | 0.15 | 0.05 | 66 | 1011.5 |
| 20260507150110 | 11 | 5 | 1.6 | 8.0 | 0.00 | 0.15 | 0.05 | 64 | 1011.6 |
| 20260507145601 | 11 | 318 | 3.2 | 8.0 | 0.00 | 0.25 | 0.05 | 63 | 1011.5 |
| 20260507145104 | 11 | 360 | 1.6 | 6.4 | 0.00 | 0.25 | 0.05 | 71 | 1011.7 |
| 20260507144601 | 10 | 296 | 1.6 | 6.4 | 0.00 | 0.25 | 0.05 | 68 | 1011.7 |
| 20260507144101 | 10 | 0 | 1.6 | 6.4 | 0.00 | 0.25 | 0.05 | 67 | 1011.8 |
| 20260507143600 | 10 | 0 | 1.6 | 4.8 | 0.00 | 0.25 | 0.05 | 69 | 1011.8 |
| 20260507143102 | 10 | 0 | 1.6 | 4.8 | 0.00 | 0.25 | 0.05 | 68 | 1011.9 |
| 20260507142600 | 10 | 0 | 0.0 | 6.4 | 0.00 | 0.25 | 0.05 | 68 | 1011.8 |
| 20260507142102 | 10 | 35 | 1.6 | 6.4 | 0.00 | 0.25 | 0.05 | 67 | 1011.9 |
| 20260507141603 | 10 | 21 | 1.6 | 6.4 | 0.00 | 0.25 | 0.05 | 65 | 1011.7 |
| 20260507141101 | 9 | 44 | 0.0 | 4.8 | 0.00 | 0.25 | 0.05 | 71 | 1011.8 |
| 20260507140601 | 10 | 19 | 0.0 | 8.0 | 0.00 | 0.25 | 0.05 | 71 | 1012.0 |
| 20260507140100 | 9 | 336 | 1.6 | 8.0 | 0.00 | 0.25 | 0.05 | 66 | 1011.9 |
| 20260507135604 | 9 | 321 | 3.2 | 8.0 | 0.00 | 0.43 | 0.05 | 67 | 1012.0 |
| 20260507135104 | 9 | 24 | 3.2 | 6.4 | 0.00 | 0.43 | 0.05 | 67 | 1012.1 |
| 20260507134616 | 9 | 336 | 3.2 | 6.4 | 0.00 | 0.43 | 0.05 | 68 | 1012.2 |
| 20260507134101 | 9 | 344 | 3.2 | 8.0 | 0.00 | 0.43 | 0.05 | 68 | 1012.2 |
| 20260507133601 | 9 | 355 | 3.2 | 8.0 | 0.00 | 0.43 | 0.05 | 69 | 1012.2 |
| 20260507133100 | 9 | 321 | 1.6 | 4.8 | 0.00 | 0.43 | 0.05 | 71 | 1012.3 |
| 20260507132600 | 9 | 326 | 1.6 | 6.4 | 0.00 | 0.43 | 0.05 | 70 | 1012.3 |
| 20260507132100 | 9 | 314 | 1.6 | 6.4 | 0.00 | 0.43 | 0.05 | 69 | 1012.3 |
| 20260507131601 | 9 | 341 | 1.6 | 6.4 | 0.00 | 0.43 | 0.05 | 69 | 1012.2 |
| 20260507131102 | 9 | 24 | 1.6 | 8.0 | 0.00 | 0.43 | 0.05 | 72 | 1012.2 |
| 20260507130559 | 9 | 327 | 3.2 | 9.7 | 0.00 | 0.43 | 0.05 | 70 | 1012.1 |
| 20260507130110 | 9 | 329 | 3.2 | 9.7 | 0.00 | 0.43 | 0.05 | 71 | 1012.1 |
| 20260507125556 | 9 | 323 | 4.8 | 9.7 | 0.00 | 0.58 | 0.05 | 69 | 1012.1 |
| 20260507125057 | 9 | 334 | 4.8 | 8.0 | 0.00 | 0.58 | 0.05 | 69 | 1012.0 |
| 20260507124621 | 9 | 350 | 4.8 | 8.0 | 0.00 | 0.58 | 0.05 | 69 | 1012.0 |
| 20260507124057 | 9 | 347 | 3.2 | 6.4 | 0.00 | 0.58 | 0.05 | 71 | 1012.1 |
| 20260507123557 | 9 | 327 | 3.2 | 6.4 | 0.00 | 0.58 | 0.05 | 72 | 1012.1 |
| 20260507123109 | 9 | 326 | 1.6 | 4.8 | 0.00 | 0.58 | 0.05 | 73 | 1012.1 |
| 20260507122559 | 9 | 346 | 1.6 | 6.4 | 0.00 | 0.58 | 0.05 | 73 | 1012.2 |
| 20260507122100 | 9 | 327 | 1.6 | 6.4 | 0.00 | 0.58 | 0.05 | 72 | 1012.3 |
| 20260507121604 | 9 | 328 | 3.2 | 6.4 | 0.00 | 0.58 | 0.05 | 73 | 1012.1 |
| 20260507121059 | 9 | 318 | 3.2 | 6.4 | 0.00 | 0.58 | 0.05 | 74 | 1012.0 |
| 20260507120559 | 9 | 346 | 3.2 | 6.4 | 0.00 | 0.58 | 0.05 | 75 | 1012.1 |
| 20260507115600 | 9 | 343 | 3.2 | 9.7 | 0.00 | 0.69 | 0.05 | 75 | 1012.0 |
| 20260507115100 | 9 | 350 | 3.2 | 9.7 | 0.00 | 0.69 | 0.05 | 76 | 1012.0 |
| 20260507114605 | 9 | 340 | 3.2 | 12.9 | 0.00 | 0.69 | 0.05 | 77 | 1012.0 |
| 20260507114056 | 9 | 347 | 3.2 | 12.9 | 0.00 | 0.69 | 0.05 | 77 | 1011.9 |
| 20260507113601 | 10 | 28 | 3.2 | 12.9 | 0.00 | 0.69 | 0.05 | 78 | 1011.7 |
| 20260507113101 | 10 | 342 | 3.2 | 6.4 | 0.00 | 0.69 | 0.05 | 81 | 1011.7 |
| 20260507112556 | 10 | 341 | 3.2 | 6.4 | 0.00 | 0.69 | 0.05 | 80 | 1011.7 |
| 20260507112059 | 10 | 338 | 3.2 | 6.4 | 0.00 | 0.69 | 0.05 | 81 | 1011.6 |
| 20260507111558 | 10 | 13 | 1.6 | 6.4 | 0.00 | 0.69 | 0.05 | 82 | 1011.5 |
| 20260507111102 | 10 | 15 | 3.2 | 6.4 | 0.00 | 0.69 | 0.05 | 82 | 1011.6 |
| 20260507110556 | 10 | 351 | 3.2 | 6.4 | 0.00 | 0.69 | 0.05 | 80 | 1011.4 |
| 20260507110100 | 10 | 341 | 3.2 | 6.4 | 0.00 | 0.69 | 0.05 | 80 | 1011.6 |
| 20260507105600 | 10 | 319 | 3.2 | 6.4 | 0.00 | 0.69 | 0.05 | 79 | 1011.6 |
| 20260507105100 | 10 | 335 | 3.2 | 6.4 | 0.00 | 0.69 | 0.05 | 80 | 1011.5 |
| 20260507104600 | 10 | 340 | 1.6 | 4.8 | 0.00 | 0.69 | 0.05 | 80 | 1011.5 |
| 20260507104102 | 10 | 12 | 1.6 | 4.8 | 0.00 | 0.69 | 0.05 | 80 | 1011.4 |
| 20260507103600 | 10 | 339 | 1.6 | 6.4 | 0.00 | 0.69 | 0.05 | 80 | 1011.4 |
| 20260507103114 | 10 | 343 | 1.6 | 6.4 | 0.00 | 0.69 | 0.05 | 81 | 1011.3 |
| 20260507102559 | 10 | 23 | 3.2 | 6.4 | 0.00 | 0.69 | 0.05 | 80 | 1011.2 |
| 20260507102100 | 10 | 342 | 3.2 | 6.4 | 0.00 | 0.69 | 0.05 | 82 | 1011.3 |
| 20260507101601 | 10 | 346 | 3.2 | 6.4 | 0.00 | 0.69 | 0.05 | 81 | 1011.3 |
| 20260507101056 | 10 | 351 | 1.6 | 4.8 | 0.00 | 0.69 | 0.05 | 81 | 1011.2 |
| 20260507100559 | 10 | 342 | 1.6 | 4.8 | 0.00 | 0.69 | 0.05 | 80 | 1011.1 |
| 20260507100113 | 10 | 340 | 1.6 | 4.8 | 0.00 | 0.69 | 0.05 | 79 | 1011.0 |
| 20260507095603 | 10 | 350 | 3.2 | 4.8 | 0.00 | 0.69 | 0.05 | 79 | 1011.0 |
| 20260507095101 | 10 | 347 | 3.2 | 6.4 | 0.00 | 0.69 | 0.05 | 80 | 1010.9 |
| 20260507094559 | 10 | 345 | 3.2 | 8.0 | 0.00 | 0.69 | 0.05 | 79 | 1010.9 |
| 20260507094101 | 10 | 5 | 3.2 | 8.0 | 0.00 | 0.69 | 0.05 | 79 | 1010.8 |
| 20260507093603 | 10 | 338 | 4.8 | 8.0 | 0.00 | 0.69 | 0.05 | 78 | 1010.9 |
| 20260507093102 | 10 | 315 | 1.6 | 4.8 | 0.00 | 0.69 | 0.05 | 80 | 1011.0 |
| 20260507092601 | 10 | 338 | 3.2 | 4.8 | 0.00 | 0.69 | 0.05 | 80 | 1010.8 |
| 20260507092101 | 10 | 301 | 3.2 | 4.8 | 0.00 | 0.69 | 0.05 | 81 | 1010.8 |
| 20260507091600 | 10 | 329 | 1.6 | 8.0 | 0.00 | 0.69 | 0.05 | 84 | 1010.7 |
| 20260507091101 | 10 | 325 | 1.6 | 8.0 | 0.00 | 0.69 | 0.05 | 82 | 1010.6 |
| 20260507090600 | 10 | 342 | 3.2 | 8.0 | 0.00 | 0.69 | 0.05 | 81 | 1010.4 |
| 20260507090100 | 10 | 340 | 1.6 | 8.0 | 0.00 | 0.69 | 0.05 | 81 | 1010.6 |
| 20260507085600 | 10 | 5 | 1.6 | 8.0 | 0.00 | 0.69 | 0.05 | 80 | 1010.6 |
| 20260507085100 | 10 | 49 | 3.2 | 6.4 | 0.00 | 0.69 | 0.05 | 80 | 1010.6 |
| 20260507084602 | 10 | 351 | 1.6 | 6.4 | 0.00 | 0.69 | 0.05 | 81 | 1010.6 |
| 20260507084100 | 10 | 355 | 1.6 | 6.4 | 0.00 | 0.69 | 0.05 | 82 | 1010.8 |
| 20260507083600 | 10 | 342 | 3.2 | 6.4 | 0.00 | 0.69 | 0.05 | 81 | 1010.7 |
| 20260507083120 | 10 | 335 | 3.2 | 8.0 | 0.00 | 0.69 | 0.05 | 81 | 1010.6 |
| 20260507082602 | 10 | 345 | 3.2 | 8.0 | 0.00 | 0.69 | 0.05 | 81 | 1010.6 |
| 20260507082100 | 10 | 346 | 3.2 | 8.0 | 0.00 | 0.69 | 0.05 | 80 | 1010.7 |
| 20260507081605 | 10 | 334 | 3.2 | 11.3 | 0.00 | 0.69 | 0.05 | 81 | 1010.7 |
| 20260507081101 | 10 | 338 | 3.2 | 11.3 | 0.00 | 0.69 | 0.05 | 82 | 1010.5 |
| 20260507080600 | 10 | 320 | 4.8 | 12.9 | 0.00 | 0.69 | 0.05 | 81 | 1010.6 |
| 20260507075602 | 10 | 327 | 4.8 | 12.9 | 0.00 | 0.69 | 0.05 | 82 | 1010.4 |
| 20260507075101 | 10 | 332 | 4.8 | 9.7 | 0.00 | 0.69 | 0.05 | 82 | 1010.2 |
| 20260507074625 | 10 | 322 | 4.8 | 11.3 | 0.00 | 0.69 | 0.05 | 82 | 1010.0 |
| 20260507074102 | 10 | 342 | 6.4 | 11.3 | 0.00 | 0.69 | 0.05 | 82 | 1009.9 |
| 20260507073601 | 10 | 313 | 4.8 | 8.0 | 0.00 | 0.69 | 0.05 | 83 | 1009.9 |
| 20260507073103 | 10 | 313 | 3.2 | 6.4 | 0.00 | 0.69 | 0.05 | 84 | 1010.0 |
| 20260507072601 | 10 | 322 | 3.2 | 6.4 | 0.00 | 0.69 | 0.05 | 84 | 1010.1 |
| 20260507072101 | 10 | 318 | 3.2 | 8.0 | 0.00 | 0.69 | 0.05 | 84 | 1010.1 |
| 20260507071600 | 10 | 329 | 3.2 | 14.5 | 0.00 | 0.69 | 0.05 | 85 | 1010.0 |
| 20260507071101 | 10 | 313 | 6.4 | 14.5 | 0.00 | 0.69 | 0.05 | 85 | 1009.9 |
| 20260507070601 | 10 | 320 | 6.4 | 14.5 | 0.00 | 0.69 | 0.05 | 86 | 1010.1 |
| 20260507070106 | 10 | 324 | 6.4 | 14.5 | 0.00 | 0.69 | 0.05 | 86 | 1010.1 |
| 20260507065600 | 10 | 327 | 6.4 | 12.9 | 0.00 | 0.69 | 0.05 | 87 | 1010.0 |
| 20260507065100 | 10 | 338 | 6.4 | 12.9 | 0.00 | 0.69 | 0.05 | 87 | 1010.0 |
| 20260507064604 | 10 | 327 | 6.4 | 14.5 | 0.00 | 0.69 | 0.05 | 87 | 1010.1 |
| 20260507064101 | 10 | 309 | 6.4 | 14.5 | 0.00 | 0.69 | 0.05 | 88 | 1010.0 |
| 20260507063601 | 10 | 5 | 4.8 | 14.5 | 0.00 | 0.69 | 0.05 | 89 | 1010.1 |
| 20260507063059 | 10 | 324 | 6.4 | 12.9 | 0.00 | 0.69 | 0.05 | 88 | 1010.1 |
| 20260507062559 | 10 | 330 | 6.4 | 9.7 | 0.00 | 0.69 | 0.05 | 89 | 1010.2 |
| 20260507062056 | 10 | 320 | 4.8 | 9.7 | 0.00 | 0.69 | 0.05 | 89 | 1010.2 |
| 20260507061559 | 10 | 308 | 3.2 | 8.0 | 0.00 | 0.69 | 0.05 | 89 | 1010.3 |
| 20260507061056 | 10 | 305 | 4.8 | 8.0 | 0.03 | 0.69 | 0.05 | 89 | 1010.6 |
| 20260507060559 | 10 | 318 | 4.8 | 9.7 | 0.03 | 0.69 | 0.05 | 90 | 1010.4 |
| 20260507060059 | 10 | 317 | 4.8 | 9.7 | 0.03 | 0.69 | 0.05 | 90 | 1010.3 |
| 20260507055600 | 10 | 331 | 4.8 | 8.0 | 0.03 | 0.69 | 0.05 | 91 | 1010.1 |
| 20260507055056 | 10 | 323 | 4.8 | 8.0 | 0.03 | 0.69 | 0.05 | 91 | 1010.4 |
| 20260507054557 | 10 | 306 | 3.2 | 8.0 | 0.03 | 0.69 | 0.05 | 91 | 1010.3 |
| 20260507054100 | 10 | 321 | 3.2 | 8.0 | 0.03 | 0.69 | 0.05 | 91 | 1010.6 |
| 20260507053600 | 10 | 298 | 4.8 | 8.0 | 0.03 | 0.69 | 0.05 | 90 | 1010.3 |
| 20260507053100 | 10 | 324 | 4.8 | 9.7 | 0.03 | 0.69 | 0.05 | 91 | 1010.4 |
| 20260507052559 | 10 | 323 | 4.8 | 9.7 | 0.03 | 0.69 | 0.05 | 91 | 1010.4 |
| 20260507052058 | 11 | 300 | 6.4 | 9.7 | 0.03 | 0.69 | 0.05 | 90 | 1010.4 |
| 20260507051602 | 11 | 317 | 4.8 | 14.5 | 0.03 | 0.69 | 0.05 | 90 | 1010.4 |
| 20260507051059 | 11 | 316 | 6.4 | 14.5 | 0.00 | 0.66 | 0.03 | 91 | 1010.4 |
| 20260507050559 | 11 | 34 | 6.4 | 12.9 | 0.00 | 0.66 | 0.03 | 92 | 1010.5 |
| 20260507050059 | 11 | 342 | 4.8 | 9.7 | 0.03 | 0.66 | 0.03 | 93 | 1010.4 |
| 20260507045601 | 11 | 340 | 6.4 | 9.7 | 0.03 | 0.66 | 0.03 | 93 | 1010.1 |
| 20260507045056 | 11 | 17 | 1.6 | 6.4 | 0.03 | 0.66 | 0.03 | 93 | 1009.7 |
| 20260507044558 | 11 | 24 | 1.6 | 9.7 | 0.03 | 0.66 | 0.03 | 93 | 1010.0 |
| 20260507044059 | 11 | 343 | 3.2 | 9.7 | 0.03 | 0.66 | 0.03 | 93 | 1010.5 |
| 20260507043600 | 11 | 355 | 3.2 | 6.4 | 0.03 | 0.66 | 0.03 | 93 | 1010.6 |
| 20260507043102 | 12 | 349 | 3.2 | 6.4 | 0.03 | 0.66 | 0.03 | 93 | 1010.8 |
| 20260507042558 | 12 | 295 | 1.6 | 6.4 | 0.03 | 0.66 | 0.03 | 92 | 1010.4 |
| 20260507042100 | 12 | 111 | 1.6 | 6.4 | 0.03 | 0.66 | 0.03 | 91 | 1009.8 |
| 20260507041600 | 12 | 100 | 1.6 | 12.9 | 0.03 | 0.66 | 0.03 | 91 | 1010.1 |
| 20260507041100 | 12 | 336 | 4.8 | 12.9 | 0.03 | 0.66 | 0.03 | 90 | 1010.4 |
| 20260507040602 | 12 | 303 | 1.6 | 9.7 | 0.03 | 0.66 | 0.03 | 89 | 1011.0 |
| 20260507040059 | 12 | 328 | 4.8 | 9.7 | 0.00 | 0.64 | 0.00 | 88 | 1010.6 |
| 20260507035559 | 12 | 22 | 3.2 | 8.0 | 0.00 | 0.64 | 0.64 | 88 | 1010.1 |
| 20260507035102 | 12 | 315 | 3.2 | 6.4 | 0.00 | 0.64 | 0.64 | 89 | 1010.6 |
| 20260507034601 | 13 | 316 | 3.2 | 8.0 | 0.00 | 0.64 | 0.64 | 89 | 1010.0 |
| 20260507034059 | 13 | 329 | 0.0 | 8.0 | 0.00 | 0.64 | 0.64 | 88 | 1009.8 |
| 20260507033556 | 13 | 5 | 1.6 | 6.4 | 0.00 | 0.64 | 0.64 | 87 | 1009.7 |
| 20260507033058 | 13 | 276 | 3.2 | 8.0 | 0.00 | 0.64 | 0.64 | 88 | 1009.7 |
| 20260507032557 | 13 | 331 | 3.2 | 8.0 | 0.00 | 0.64 | 0.64 | 88 | 1009.7 |
| 20260507032056 | 13 | 352 | 4.8 | 8.0 | 0.00 | 0.64 | 0.64 | 89 | 1009.7 |
| 20260507031557 | 13 | 329 | 3.2 | 12.9 | 0.00 | 0.64 | 0.64 | 89 | 1009.7 |
| 20260507031101 | 13 | 322 | 6.4 | 14.5 | 0.00 | 0.64 | 0.64 | 88 | 1009.7 |
| 20260507030559 | 13 | 334 | 8.0 | 16.1 | 0.00 | 0.64 | 0.64 | 88 | 1009.6 |
| 20260507030100 | 13 | 316 | 8.0 | 16.1 | 0.00 | 0.64 | 0.64 | 88 | 1009.9 |
| 20260507025604 | 13 | 324 | 9.7 | 16.1 | 0.00 | 0.64 | 0.64 | 87 | 1010.0 |
| 20260507025101 | 13 | 317 | 6.4 | 16.1 | 0.00 | 0.64 | 0.64 | 87 | 1009.6 |
| 20260507024625 | 13 | 315 | 6.4 | 16.1 | 0.00 | 0.64 | 0.64 | 86 | 1009.4 |
| 20260507024100 | 13 | 312 | 6.4 | 12.9 | 0.00 | 0.64 | 0.64 | 86 | 1009.2 |
| 20260507023604 | 13 | 328 | 6.4 | 12.9 | 0.00 | 0.64 | 0.64 | 86 | 1009.0 |
| 20260507023058 | 13 | 328 | 6.4 | 19.3 | 0.00 | 0.64 | 0.64 | 86 | 1009.0 |
| 20260507022600 | 14 | 340 | 8.0 | 19.3 | 0.00 | 0.64 | 0.64 | 87 | 1009.2 |
| 20260507022100 | 14 | 312 | 8.0 | 14.5 | 0.00 | 0.64 | 0.64 | 87 | 1009.4 |
| 20260507021558 | 14 | 327 | 6.4 | 12.9 | 0.00 | 0.64 | 0.64 | 88 | 1009.2 |
| 20260507021059 | 14 | 317 | 6.4 | 16.1 | 0.00 | 0.64 | 0.64 | 89 | 1009.3 |
| 20260507020601 | 14 | 319 | 8.0 | 16.1 | 0.00 | 0.64 | 0.64 | 89 | 1009.2 |
| 20260507020111 | 14 | 307 | 6.4 | 11.3 | 0.00 | 0.64 | 0.64 | 90 | 1009.1 |
| 20260507015559 | 15 | 286 | 6.4 | 11.3 | 0.00 | 0.64 | 0.64 | 90 | 1009.1 |
| 20260507015059 | 15 | 315 | 6.4 | 11.3 | 0.00 | 0.64 | 0.64 | 91 | 1008.9 |
| 20260507014607 | 15 | 321 | 6.4 | 11.3 | 0.00 | 0.64 | 0.64 | 91 | 1009.2 |
| 20260507014059 | 15 | 309 | 4.8 | 11.3 | 0.00 | 0.64 | 0.64 | 91 | 1009.1 |
| 20260507013556 | 15 | 290 | 3.2 | 6.4 | 0.00 | 0.64 | 0.64 | 91 | 1009.1 |
| 20260507013059 | 15 | 350 | 1.6 | 6.4 | 0.00 | 0.64 | 0.64 | 91 | 1009.0 |
| 20260507012600 | 15 | 340 | 3.2 | 9.7 | 0.00 | 0.64 | 0.64 | 92 | 1008.9 |
| 20260507012100 | 15 | 323 | 3.2 | 12.9 | 0.00 | 0.64 | 0.64 | 92 | 1008.9 |
| 20260507011603 | 15 | 323 | 6.4 | 12.9 | 0.00 | 0.64 | 0.64 | 92 | 1009.2 |
| 20260507011059 | 15 | 328 | 8.0 | 12.9 | 0.00 | 0.64 | 0.64 | 92 | 1009.5 |
| 20260507010600 | 15 | 311 | 4.8 | 12.9 | 0.00 | 0.64 | 0.64 | 93 | 1009.5 |
| 20260507010058 | 15 | 301 | 4.8 | 8.0 | 0.00 | 0.64 | 0.64 | 93 | 1009.5 |
| 20260507005600 | 15 | 320 | 4.8 | 8.0 | 0.00 | 0.64 | 0.64 | 93 | 1009.4 |
| 20260507005059 | 16 | 311 | 3.2 | 8.0 | 0.00 | 0.64 | 0.64 | 94 | 1009.3 |
| 20260507004557 | 16 | 305 | 4.8 | 8.0 | 0.00 | 0.64 | 0.64 | 94 | 1009.1 |
| 20260507004101 | 16 | 319 | 4.8 | 8.0 | 0.03 | 0.64 | 0.64 | 94 | 1009.2 |
| 20260507003600 | 16 | 304 | 3.2 | 6.4 | 0.03 | 0.64 | 0.64 | 94 | 1009.1 |
| 20260507003059 | 16 | 315 | 1.6 | 4.8 | 0.05 | 0.64 | 0.64 | 95 | 1008.9 |
| 20260507002556 | 16 | 277 | 0.0 | 8.0 | 0.05 | 0.64 | 0.64 | 94 | 1009.2 |
| 20260507002102 | 16 | 0 | 3.2 | 9.7 | 0.05 | 0.64 | 0.64 | 94 | 1009.3 |
| 20260507001558 | 16 | 311 | 3.2 | 9.7 | 0.08 | 0.64 | 0.64 | 94 | 1009.1 |
| 20260507001151 | 16 | 313 | 3.2 | 8.0 | 0.10 | 0.64 | 0.64 | 94 | 1009.0 |
| 20260507000601 | 16 | 278 | 3.2 | 6.4 | 0.10 | 0.64 | 0.64 | 94 | 1008.9 |
| 20260506235601 | 16 | 279 | 1.6 | 6.4 | 0.10 | 0.64 | 0.64 | 93 | 1008.6 |
| 20260506235100 | 16 | 262 | 3.2 | 6.4 | 0.10 | 0.64 | 0.64 | 94 | 1008.7 |
| 20260506234612 | 16 | 279 | 1.6 | 8.0 | 0.08 | 0.61 | 0.61 | 93 | 1008.5 |
| 20260506234101 | 16 | 229 | 1.6 | 8.0 | 0.08 | 0.61 | 0.61 | 93 | 1008.4 |
| 20260506233605 | 16 | 300 | 4.8 | 8.0 | 0.08 | 0.61 | 0.61 | 93 | 1008.6 |
| 20260506233102 | 16 | 304 | 3.2 | 8.0 | 0.05 | 0.58 | 0.58 | 93 | 1008.6 |
| 20260506232601 | 16 | 284 | 1.6 | 4.8 | 0.05 | 0.58 | 0.58 | 92 | 1008.4 |
| 20260506232102 | 17 | 287 | 1.6 | 3.2 | 0.05 | 0.58 | 0.58 | 91 | 1008.3 |
| 20260506231601 | 17 | 267 | 0.0 | 3.2 | 0.03 | 0.56 | 0.56 | 91 | 1008.1 |
| 20260506231104 | 17 | 267 | 0.0 | 3.2 | 0.00 | 0.53 | 0.53 | 90 | 1008.2 |
| 20260506230601 | 17 | 0 | 0.0 | 4.8 | 0.00 | 0.53 | 0.53 | 88 | 1008.0 |
| 20260506225604 | 18 | 0 | 0.0 | 8.0 | 0.00 | 0.53 | 0.53 | 86 | 1007.8 |
| 20260506225104 | 18 | 185 | 1.6 | 8.0 | 0.00 | 0.53 | 0.53 | 86 | 1007.9 |
| 20260506224600 | 18 | 215 | 1.6 | 12.9 | 0.00 | 0.53 | 0.53 | 86 | 1007.9 |
| 20260506224100 | 18 | 202 | 3.2 | 12.9 | 0.00 | 0.53 | 0.53 | 85 | 1007.8 |
| 20260506223600 | 18 | 136 | 3.2 | 14.5 | 0.00 | 0.53 | 0.53 | 85 | 1007.9 |
| 20260506223100 | 18 | 178 | 6.4 | 14.5 | 0.00 | 0.53 | 0.53 | 84 | 1007.8 |
| 20260506222603 | 18 | 220 | 3.2 | 11.3 | 0.00 | 0.53 | 0.53 | 84 | 1007.7 |
| 20260506222101 | 18 | 169 | 1.6 | 8.0 | 0.00 | 0.53 | 0.53 | 84 | 1007.7 |
| 20260506221603 | 18 | 79 | 1.6 | 11.3 | 0.00 | 0.53 | 0.53 | 85 | 1007.8 |
| 20260506221101 | 18 | 155 | 4.8 | 11.3 | 0.00 | 0.53 | 0.53 | 85 | 1007.8 |
| 20260506220601 | 18 | 111 | 3.2 | 9.7 | 0.00 | 0.53 | 0.53 | 85 | 1007.7 |
| 20260506220059 | 18 | 175 | 1.6 | 8.0 | 0.00 | 0.53 | 0.53 | 84 | 1007.8 |
| 20260506215603 | 18 | 187 | 1.6 | 9.7 | 0.00 | 0.53 | 0.53 | 84 | 1007.7 |
| 20260506215101 | 18 | 172 | 3.2 | 9.7 | 0.00 | 0.53 | 0.53 | 84 | 1007.7 |
| 20260506214600 | 18 | 150 | 3.2 | 11.3 | 0.00 | 0.53 | 0.53 | 84 | 1007.7 |
| 20260506214101 | 18 | 171 | 3.2 | 11.3 | 0.00 | 0.53 | 0.53 | 85 | 1007.7 |